This is the latest recevied weather packets stored in our database for station/object IU3OVK-13. If no packets are shown the sender has not sent any weather packets the latest 10 day(s).
| Time | Temp. | Humidity | Pressure | Rain* | Wind** | Luminosity | Snow |
|---|---|---|---|---|---|---|---|
| 1787842764 | 30.56° C | 99% | 1010 hPa | - | - | - | - |
| 1787842146 | 30° C | 99% | 1010 hPa | - | - | - | - |
| 1787841523 | 30° C | 99% | 1010.3 hPa | - | - | - | - |
| 1787840903 | 30.56° C | 99% | 1010.1 hPa | - | - | - | - |
| 1787840283 | 30° C | 99% | 1010.4 hPa | - | - | - | - |
| 1787839663 | 31.11° C | 99% | 1010.3 hPa | - | - | - | - |
| 1787839043 | 32.78° C | 99% | 1009.8 hPa | - | - | - | - |
| 1787838422 | 32.78° C | 99% | 1009.8 hPa | - | - | - | - |
| 1787837802 | 30.56° C | 99% | 1010.6 hPa | - | - | - | - |
| 1787836562 | 32.22° C | 99% | 1010.2 hPa | - | - | - | - |
| 1787835942 | 30.56° C | 99% | 1010.1 hPa | - | - | - | - |
| 1787834701 | 30.56° C | 99% | 1010.6 hPa | - | - | - | - |
| 1787834081 | 32.22° C | 99% | 1010.3 hPa | - | - | - | - |
| 1787833461 | 31.11° C | 99% | 1010.7 hPa | - | - | - | - |
| 1787832841 | 35° C | 99% | 1009.2 hPa | - | - | - | - |
| 1787831600 | 33.89° C | 99% | 1009.4 hPa | - | - | - | - |
| 1787830980 | 33.33° C | 99% | 1010.1 hPa | - | - | - | - |
| 1787830360 | 32.78° C | 99% | 1010.4 hPa | - | - | - | - |
| 1787829740 | 33.89° C | 99% | 1010 hPa | - | - | - | - |
| 1787829119 | 34.44° C | 99% | 1010 hPa | - | - | - | - |
| 1787828499 | 33.89° C | 99% | 1011.4 hPa | - | - | - | - |
| 1787827879 | 38.33° C | 92% | 1013.9 hPa | - | - | - | - |
| 1787826639 | 41.67° C | 86% | 1010 hPa | - | - | - | - |
| 1787826018 | 40.56° C | 86% | 1013.8 hPa | - | - | - | - |
| 1787825398 | 41.11° C | 84% | 1014.3 hPa | - | - | - | - |
* Rain since midnight (hover to see other rain measurements)
** Current wind speed in m/s (hover to see current wind gust speed)